STARLINK-32403, 61629

Orbit data source: Space-Track

STARLINK-32403, 61629 is a payload satellite owned by SpaceX/Seattle (US) in LEO that was launched on Wed, 23 Oct 2024 UTC via an FALCON 9 launch vehicle from the Air Force Eastern Test Range (AFETR). Payload-class satellites include a variety of spacecraft equipped with specific instruments for various scientific and technological missions. These include communications satellites like Starlink; space stations such as the ISS; scientific satellites like the Hubble; Earth observation satellites from companies like Planet Labs, Umbra, and HawkEye 360; GPS; miniature CubeSats for education and research; and military/defense satellites.

Loading next visibility...
Identifier
61629, 2024-191J
Orbit
LEO
Country
Flag of USUS
Related business
Manufacturer
SpaceX/Seattle
Mission
Operational Commercial Communications
Bus & Motor
STARLINK V2M, Unknown motor
Mass
730 kg wet, ~700 kg dry
Launch date (UTC)
2024-10-23 (1 year ago)
Launch vehicle
FALCON 9
Launch site
Air Force Eastern Test Range (AFETR)
Object type
Payload
Rocket body
Debris
Shape & HBR
Box + 2 Pan, 17.7 m
Radar Cross Section
33.884 m², Large (>1 m²)

Expand to show TLE details & history
Last TLE update: 18 hours ago

TLE from 18 hours ago
0 STARLINK-32403
1 61629U 24191J   26034.21121000 -.00000166  00000-0  34999-5 0  9996
2 61629  42.9985 349.2002 0000738 355.5808   4.5037 15.27584408 72265
Epoch: 2026-02-03T05:04Z
TLE epoch observation values (Epoch: 2026-02-03T05:04:08.544Z)
Latitude
-0.00004°
Longitude
139.76916°
Altitude
482.306 km
Speed
7.626 km/s
True Right ascension
23h 16m 48s
True Declination
0° 00' 00"
Sunlit
Object was in daylight at epoch
Visualization orbit readout
Latitude
Unknown
Longitude
Unknown
Altitude
Unknown
Speed
Unknown
Apparent Right ascension
Unknown
Apparent Declination
Unknown
Sunlit
N/A
Visualization observer readout
Local Sidereal Time
00:50:40
Azimuth
Unknown
Elevation
Unknown
Doppler factor
Unknown
Orbital elements
Apogee altitude
485.488 km
Perigee altitude
484.475 km
Semi-major axis
6,863.118 km
Eccentricity
0.00007
Inclination
42.9985°
RAAN
349.2002°
Arg. of periapsis
355.5808°
True anomaly
4.50436°
Mean anomaly
4.5037°
Eccentric anomaly
4.50403°
Mean motion
3.81734 °/min
Orbital period
94.31 mins
BSTAR
0.0000034999
Loading maneuver chart data...
Computing Atmospheric mass density...
Loading historical data...
Loading historical data...
Loading historical data...
Loading historical data...
Loading historical data...
Loading historical data...
Loading historical data...

Documentation

Showing up to 5 results
|